[TLELIST] Archives

 

[TLELIST] Current TLEs

July 8th 2023 PDT

HST 1 20580U 90037B 23189.18124677 .00003939 00000-0 20457-3 0 9998 2 20580 28.4689 128.2945 0002383 243.6949 260.5368 15.13420247624919 ISS (ZARYA) 1 25544U 98067A 23189.39344297 .00010501 00000-0 19433-3 0 9994 2 25544 51.6405 223.4203 0000210 104.9707 270.5867 15.49609349405082 CXO 1 25867U 99040B 23189.11203580 .00000394 00000-0 00000+0 0 9998 2 25867 37.4736 194.2057 9051980 264.5386 0.3029 0.37811182 24410 ...Continue Reading

[TLELIST] Current TLEs

July 8th 2023 PDT

HST 1 20580U 90037B 23189.18124677 .00003939 00000-0 20457-3 0 9998 2 20580 28.4689 128.2945 0002383 243.6949 260.5368 15.13420247624919 ISS (ZARYA) 1 25544U 98067A 23189.39344297 .00010501 00000-0 19433-3 0 9994 2 25544 51.6405 223.4203 0000210 104.9707 270.5867 15.49609349405082 CXO 1 25867U 99040B 23189.11203580 .00000394 00000-0 00000+0 0 9998 2 25867 37.4736 194.2057 9051980 264.5386 0.3029 0.37811182 24410 ...Continue Reading

[TLELIST] Current TLEs

July 7th 2023 PDT

HST 1 20580U 90037B 23187.60293274 .00003465 00000-0 17878-3 0 9990 2 20580 28.4687 138.7985 0002431 225.5298 302.4854 15.13408807624674 ISS (ZARYA) 1 25544U 98067A 23188.39074074 .00009778 00000-0 18167-3 0 9993 2 25544 51.6404 228.3856 0000184 50.0856 128.1436 15.49585600404920 CXO 1 25867U 99040B 23189.11203580 .00000394 00000-0 00000+0 0 9998 2 25867 37.4736 194.2057 9051980 264.5386 0.3029 0.37811182 24410 ...Continue Reading

[TLELIST] Current TLEs

July 6th 2023 PDT

HST 1 20580U 90037B 23186.34286705 .00003199 00000-0 16433-3 0 9991 2 20580 28.4684 147.1849 0002439 211.5393 277.6622 15.13400961624470 ISS (ZARYA) 1 25544U 98067A 23187.34555919 .00007611 00000-0 14335-3 0 9996 2 25544 51.6398 233.5611 0000373 12.3897 91.4664 15.49560249404764 CXO 1 25867U 99040B 23189.11203580 .00000394 00000-0 00000+0 0 9998 2 25867 37.4736 194.2057 9051980 264.5386 0.3029 0.37811182 24410 ...Continue Reading

[TLELIST] Current TLEs

July 6th 2023 PDT

HST 1 20580U 90037B 23186.34286705 .00003199 00000-0 16433-3 0 9991 2 20580 28.4684 147.1849 0002439 211.5393 277.6622 15.13400961624470 ISS (ZARYA) 1 25544U 98067A 23187.34555919 .00007611 00000-0 14335-3 0 9996 2 25544 51.6398 233.5611 0000373 12.3897 91.4664 15.49560249404764 CXO 1 25867U 99040B 23189.11203580 .00000394 00000-0 00000+0 0 9998 2 25867 37.4736 194.2057 9051980 264.5386 0.3029 0.37811182 24410 ...Continue Reading

[TLELIST] Current TLEs

July 5th 2023 PDT

HST 1 20580U 90037B 23185.21956671 .00002858 00000-0 14576-3 0 9999 2 20580 28.4683 154.6607 0002533 199.1592 277.8696 15.13393713624302 ISS (ZARYA) 1 25544U 98067A 23186.39436343 -.00058426 00000-0 -10416-2 0 9996 2 25544 51.6383 238.2690 0000361 11.5038 182.6915 15.49507485404611 CXO 1 25867U 99040B 23189.11203580 .00000394 00000-0 00000+0 0 9998 2 25867 37.4736 194.2057 9051980 264.5386 0.3029 0.37811182 24410 ...Continue Reading

[TLELIST] Current TLEs

July 4th 2023 PDT

HST 1 20580U 90037B 23185.21956671 .00002858 00000-0 14576-3 0 9999 2 20580 28.4683 154.6607 0002533 199.1592 277.8696 15.13393713624302 ISS (ZARYA) 1 25544U 98067A 23185.48008605 .00009184 00000-0 16497-3 0 9992 2 25544 51.6400 242.7999 0004789 103.2323 25.8140 15.50638212404474 CXO 1 25867U 99040B 23186.46834681 .00000516 00000-0 00000+0 0 9991 2 25867 37.4771 194.4659 9050047 264.3373 0.2938 0.37811740 24403 ...Continue Reading

[TLELIST] Current TLEs

July 3rd 2023 PDT

HST 1 20580U 90037B 23183.64561456 .00002653 00000-0 13457-3 0 9997 2 20580 28.4679 165.1359 0002606 181.7845 342.9770 15.13384882624075 ISS (ZARYA) 1 25544U 98067A 23184.50613595 .00009258 00000-0 16635-3 0 9990 2 25544 51.6412 247.6276 0004669 98.7421 349.8603 15.50618652404326 CXO 1 25867U 99040B 23186.46809867 .00000516 00000-0 00000+0 0 9999 2 25867 37.4789 194.4752 9050052 264.3277 0.2607 0.37813132 24405 ...Continue Reading

[TLELIST] Current TLEs

July 2nd 2023 PDT

HST 1 20580U 90037B 23182.38938920 .00002761 00000-0 14052-3 0 9993 2 20580 28.4678 173.4967 0002665 168.0945 338.9165 15.13378296623888 ISS (ZARYA) 1 25544U 98067A 23183.49561343 .00009185 00000-0 16521-3 0 9993 2 25544 51.6417 252.6366 0004709 96.9956 106.9485 15.50598580404164 CXO 1 25867U 99040B 23181.18125698 .00000509 00000-0 00000+0 0 9998 2 25867 37.5067 195.1310 9050627 263.8076 0.2681 0.37816111 24381 ...Continue Reading

[TLELIST] Current TLEs

July 2nd 2023 PDT

HST 1 20580U 90037B 23182.38938920 .00002761 00000-0 14052-3 0 9993 2 20580 28.4678 173.4967 0002665 168.0945 338.9165 15.13378296623888 ISS (ZARYA) 1 25544U 98067A 23183.49561343 .00009185 00000-0 16521-3 0 9993 2 25544 51.6417 252.6366 0004709 96.9956 106.9485 15.50598580404164 CXO 1 25867U 99040B 23181.18125698 .00000509 00000-0 00000+0 0 9998 2 25867 37.5067 195.1310 9050627 263.8076 0.2681 0.37816111 24381 ...Continue Reading
  • This mailing list is a public mailing list - anyone may join or leave, at any time.
  • This mailing list is announce-only.

International Space Station (ISS) / Hubble Space Telescope (HST) / Chandra X-Ray Observatory Orbital Data via EMAIL

Privacy Policy:

Private list